TimeEST,TemperatureF,Dew PointF,Humidity,Sea Level PressureIn,VisibilityMPH,Wind Direction,Wind SpeedMPH,Gust SpeedMPH,PrecipitationIn,Events,Conditions,WindDirDegrees,DateUTC
12:53 AM,66.9,60.1,79,30.09,10.0,East,8.1,-,N/A,,Overcast,80,2013-01-21 05:53:00
1:53 AM,66.9,57.9,73,30.08,10.0,East,5.8,-,N/A,,Overcast,80,2013-01-21 06:53:00
2:53 AM,66.9,59.0,76,30.06,10.0,ENE,4.6,-,N/A,,Overcast,70,2013-01-21 07:53:00
3:53 AM,66.9,57.9,73,30.05,10.0,East,8.1,-,N/A,,Overcast,90,2013-01-21 08:53:00
4:53 AM,66.0,59.0,78,30.04,10.0,NNE,3.5,-,N/A,,Overcast,30,2013-01-21 09:53:00
5:53 AM,66.0,59.0,78,30.04,10.0,NNE,3.5,-,N/A,,Overcast,30,2013-01-21 10:53:00
6:53 AM,64.9,59.0,81,30.06,10.0,North,4.6,-,0.00,Rain,Light Rain,350,2013-01-21 11:53:00
7:53 AM,64.9,59.0,81,30.07,10.0,NNE,5.8,-,0.00,,Mostly Cloudy,30,2013-01-21 12:53:00
8:53 AM,66.0,59.0,78,30.09,10.0,NNE,4.6,-,N/A,,Partly Cloudy,20,2013-01-21 13:53:00
9:53 AM,70.0,60.1,71,30.10,10.0,NE,3.5,-,N/A,,Clear,40,2013-01-21 14:53:00
10:53 AM,70.0,60.1,71,30.10,10.0,East,3.5,-,N/A,,Clear,80,2013-01-21 15:53:00
11:53 AM,68.0,60.1,76,30.09,10.0,ESE,3.5,-,N/A,,Mostly Cloudy,110,2013-01-21 16:53:00
12:07 PM,69.1,61.0,75,30.08,10.0,SSW,3.5,-,N/A,,Overcast,200,2013-01-21 17:07:00
12:53 PM,71.1,62.1,73,30.05,10.0,Variable,3.5,-,N/A,,Mostly Cloudy,0,2013-01-21 17:53:00
1:25 PM,71.1,62.1,73,30.03,10.0,East,3.5,-,N/A,,Overcast,80,2013-01-21 18:25:00
1:53 PM,72.0,60.1,66,30.03,10.0,NNW,8.1,-,N/A,,Mostly Cloudy,330,2013-01-21 18:53:00
2:53 PM,72.0,60.1,66,30.02,10.0,Variable,5.8,-,N/A,,Clear,0,2013-01-21 19:53:00
3:53 PM,71.1,60.1,68,30.03,10.0,NNW,8.1,-,N/A,,Clear,340,2013-01-21 20:53:00
4:53 PM,69.1,59.0,70,30.03,10.0,NNW,11.5,-,N/A,,Clear,340,2013-01-21 21:53:00
5:53 PM,66.0,57.0,73,30.04,10.0,North,11.5,-,N/A,,Clear,350,2013-01-21 22:53:00
6:53 PM,64.9,54.0,68,30.05,10.0,North,11.5,-,N/A,,Clear,350,2013-01-21 23:53:00
7:53 PM,64.0,54.0,70,30.06,10.0,North,5.8,-,N/A,,Clear,350,2013-01-22 00:53:00
8:53 PM,63.0,54.0,72,30.07,10.0,North,6.9,-,N/A,,Clear,360,2013-01-22 01:53:00
9:53 PM,64.0,54.0,70,30.09,10.0,North,9.2,-,N/A,,Clear,350,2013-01-22 02:53:00
10:53 PM,63.0,54.0,72,30.09,10.0,North,8.1,-,N/A,,Clear,360,2013-01-22 03:53:00
11:53 PM,63.0,53.1,70,30.10,10.0,North,6.9,-,N/A,,Clear,350,2013-01-22 04:53:00